Location: Krakow
(50.0830°N, 19.9170°E)
Time: 21:23:49
(UTC+01:00)

Altair - Pass Details

Date: 09 December 2023
Orbit: 1501 x 1682 km, 47.2° (Epoch: 03 March)

Event Time Altitude Azimuth Distance (km) Brightness Sun altitude
Rises 10:34:42 0° 274° (W) 4,786 9.9 16.0°
Reaches altitude 10° 10:37:50 10° 273° (W) 3,776 9.4 16.1°
Maximum altitude 10:47:17 72° 192° (SSW) 1,603 8.2 16.4°
Drops below altitude 10° 10:56:27 10° 110° (ESE) 3,661 10.0 16.7°
Sets 10:59:26 0° 109° (ESE) 4,634 10.4 16.7°
